"Pseudo-MPEC" for X72053
Created 2021 Feb 2 8:07:16 UT using Find_Orb
Click here for an explanation of pseudo-MPECs
Astrometry: X72053 C2021 01 11WA1G27wa38^q$bj
Astrometry_m'a^`9t/(RQb,/^q0p5GGQZ_iQ
D29 X72053 C2021 01 11=QuVE=]
redacted;=W1L9M$kjdN[dxK2EVF^ER!PMWO*
clickN2G
D29 X72053 C2021 01 11+CMyK,j;pDi,
here.A1t@g
forA$fs%F6lPdXQJV%I
explanationD29 Station data: (D29) Purple Mountain Observatory, XuYi Station (N32.734366 E118.463900) China. Observers H. B. Zhao, B. Li, G. Zhaori, R. Q. Hong, L. F. Hu. Measurers H. B. Zhao, B. Li. H. Lu, G. Zhaori. 1.04-m f/1.8 Schmidt + CCD. Orbital elements: X72053 Perihelion 2021 Jan 31.946831 +/- 53.3165 TT = 22:43:26 (JD 2459246.446831) Epoch 2021 Jan 12.0 TT = JDT 2459226.5 Earth MOID: 0.5805 Ma: 0.0604 M 355.39111364 +/- 17.138678 (J2000 ecliptic) AutoNEOCP n 0.23105857 +/- 0.23572 Peri. 178.32308 +/- 63.067749 a 2.63019524 +/- 1.78881 Node 309.00017 +/- 32.786896 e 0.4048946 +/- 0.243785 Incl. 12.26759 +/- 7.9489045 P 4.27 H 22.7 G 0.15 U 11.8 SR q 1.56524338 +/- 0.514279 Q 3.69514710 +/- 80.7819 From 3 observations 2021 Jan. 11 (40.7 min); mean residual 0".10
Residuals in arcseconds: 210111 D29 .05+ .09+ 210111 D29 .10- .18- 210111 D29 .05+ .09+ Ephemerides (geocentric): Date (UTC) HH RA Dec delta r elong mag " sig PA ---- -- -- -- ------------- ----------- ------ ------ ----- --- ---- --- 2021 02 02 08 08 06 41.569 +20 44 47.05 .59082 1.5653 166.0 23.2 53d 158 2021 02 02 09 08 06 39.584 +20 44 01.28 .59089 1.5653 165.9 23.2 53d 158 2021 02 02 10 08 06 37.601 +20 43 15.51 .59096 1.5653 165.9 23.2 53d 158 2021 02 02 11 08 06 35.622 +20 42 29.74 .59103 1.5653 165.9 23.2 53d 158 2021 02 02 12 08 06 33.645 +20 41 43.97 .59110 1.5653 165.8 23.2 53d 158 2021 02 02 13 08 06 31.672 +20 40 58.21 .59118 1.5653 165.8 23.2 54d 158 2021 02 02 14 08 06 29.702 +20 40 12.45 .59125 1.5653 165.7 23.2 54d 158 2021 02 02 15 08 06 27.735 +20 39 26.69 .59132 1.5653 165.7 23.2 54d 158 2021 02 02 16 08 06 25.771 +20 38 40.93 .59139 1.5653 165.6 23.2 54d 158 2021 02 02 17 08 06 23.810 +20 37 55.18 .59147 1.5653 165.6 23.2 54d 158 2021 02 02 18 08 06 21.853 +20 37 09.43 .59154 1.5653 165.5 23.2 54d 158 2021 02 02 19 08 06 19.898 +20 36 23.67 .59162 1.5653 165.5 23.2 54d 158 2021 02 02 20 08 06 17.947 +20 35 37.93 .59169 1.5653 165.4 23.2 54d 158 2021 02 02 21 08 06 15.998 +20 34 52.18 .59177 1.5653 165.4 23.2 54d 158 2021 02 02 22 08 06 14.053 +20 34 06.44 .59184 1.5653 165.3 23.2 54d 158 2021 02 02 23 08 06 12.111 +20 33 20.70 .59192 1.5653 165.3 23.2 54d 158 2021 02 03 00 08 06 10.173 +20 32 34.96 .59199 1.5653 165.2 23.2 54d 158 2021 02 03 01 08 06 08.237 +20 31 49.22 .59207 1.5654 165.2 23.2 54d 158 2021 02 03 02 08 06 06.305 +20 31 03.49 .59215 1.5654 165.2 23.2 55d 158 2021 02 03 03 08 06 04.376 +20 30 17.76 .59222 1.5654 165.1 23.2 55d 158 2021 02 03 04 08 06 02.450 +20 29 32.03 .59230 1.5654 165.1 23.2 55d 158 2021 02 03 05 08 06 00.527 +20 28 46.31 .59238 1.5654 165.0 23.2 55d 158 2021 02 03 06 08 05 58.608 +20 28 00.58 .59246 1.5654 165.0 23.2 55d 158 2021 02 03 07 08 05 56.691 +20 27 14.87 .59253 1.5654 164.9 23.2 55d 158 2021 02 03 08 08 05 54.778 +20 26 29.15 .59261 1.5654 164.9 23.2 55d 158 2021 02 03 09 08 05 52.869 +20 25 43.44 .59269 1.5654 164.8 23.2 55d 158 2021 02 03 10 08 05 50.962 +20 24 57.73 .59277 1.5654 164.8 23.2 55d 158 2021 02 03 11 08 05 49.059 +20 24 12.02 .59285 1.5654 164.7 23.2 55d 158 2021 02 03 12 08 05 47.159 +20 23 26.32 .59293 1.5654 164.7 23.2 55d 158 2021 02 03 13 08 05 45.262 +20 22 40.62 .59301 1.5654 164.6 23.2 55d 158 2021 02 03 14 08 05 43.369 +20 21 54.93 .59309 1.5654 164.6 23.2 55d 158 2021 02 03 15 08 05 41.479 +20 21 09.24 .59317 1.5654 164.5 23.2 55d 158 2021 02 03 16 08 05 39.592 +20 20 23.55 .59326 1.5654 164.5 23.2 55d 158 2021 02 03 17 08 05 37.709 +20 19 37.86 .59334 1.5654 164.5 23.2 56d 158 2021 02 03 18 08 05 35.828 +20 18 52.18 .59342 1.5654 164.4 23.2 56d 158 2021 02 03 19 08 05 33.952 +20 18 06.51 .59350 1.5654 164.4 23.2 56d 158 2021 02 03 20 08 05 32.078 +20 17 20.84 .59359 1.5654 164.3 23.2 56d 158 2021 02 03 21 08 05 30.208 +20 16 35.17 .59367 1.5655 164.3 23.2 56d 158 2021 02 03 22 08 05 28.341 +20 15 49.50 .59375 1.5655 164.2 23.2 56d 158 2021 02 03 23 08 05 26.478 +20 15 03.84 .59384 1.5655 164.2 23.2 56d 158 2021 02 04 00 08 05 24.618 +20 14 18.19 .59392 1.5655 164.1 23.2 56d 158 2021 02 04 01 08 05 22.761 +20 13 32.53 .59400 1.5655 164.1 23.2 56d 158 2021 02 04 02 08 05 20.908 +20 12 46.89 .59409 1.5655 164.0 23.2 56d 158 2021 02 04 03 08 05 19.058 +20 12 01.24 .59418 1.5655 164.0 23.2 56d 158 2021 02 04 04 08 05 17.212 +20 11 15.61 .59426 1.5655 163.9 23.2 56d 158 2021 02 04 05 08 05 15.369 +20 10 29.97 .59435 1.5655 163.9 23.2 56d 158 2021 02 04 06 08 05 13.529 +20 09 44.34 .59443 1.5655 163.8 23.2 56d 158 2021 02 04 07 08 05 11.693 +20 08 58.72 .59452 1.5655 163.8 23.2 56d 159